This demonstration page uses our WeatherBlox Daily Observations layout. Learn more.

Left ArrowRight Arrow

Hourly Observations for October 28, 2021

Temp ( °F °C ) Dew Point ( °F °C ) Humidity (%) Winds ( mph kmh ) Pressure ( in mb ) Visibility ( mi km ) Precip ( " mm )
12:15 am 00:15 Cloudy 46 8 46 8 100 100 E 12 19 29.85 1011 10 16 N/A
12:35 am 00:35 Cloudy 46 8 46 8 100 100 E 13 20 29.84 1010 10 16 N/A
12:55 am 00:55 Cloudy 46 8 46 8 100 100 E 13 20 29.83 1010 10 16 N/A
1:15 am 01:15 Cloudy 46 8 46 8 100 100 ESE 10 17 29.83 1010 10 16 N/A
1:35 am 01:35 Cloudy 46 8 46 8 100 100 ESE 14 22 29.82 1010 10 16 N/A
1:55 am 01:55 Cloudy 46 8 46 8 100 100 ESE 9 15 29.81 1009 10 16 N/A
2:15 am 02:15 Cloudy 46 8 46 8 100 100 ESE 10 17 29.81 1009 10 16 N/A
2:35 am 02:35 Cloudy 46 8 46 8 100 100 ESE 8 13 29.81 1009 10 16 N/A
2:55 am 02:55 Cloudy 46 8 46 8 100 100 ESE 9 15 29.80 1009 10 16 N/A
3:15 am 03:15 Cloudy 46 8 46 8 100 100 ESE 9 15 29.79 1009 10 16 N/A
3:35 am 03:35 Cloudy 46 8 46 8 100 100 ESE 10 17 29.77 1008 10 16 N/A
3:55 am 03:55 Cloudy 46 8 46 8 100 100 E 13 20 29.75 1007 10 16 N/A
4:15 am 04:15 Cloudy 46 8 46 8 100 100 ESE 7 11 29.76 1008 10 16 N/A
4:35 am 04:35 Cloudy 46 8 46 8 100 100 ESE 10 17 29.75 1007 10 16 N/A
4:55 am 04:55 Cloudy 46 8 46 8 100 100 E 12 19 29.73 1007 10 16 N/A
5:15 am 05:15 Cloudy 46 8 46 8 100 100 ESE 8 13 29.74 1007 10 16 N/A
5:35 am 05:35 Cloudy 46 8 46 8 100 100 E 10 17 29.73 1007 10 16 N/A
5:55 am 05:55 Cloudy 46 8 46 8 100 100 E 10 17 29.72 1006 10 16 N/A
6:15 am 06:15 Cloudy 46 8 46 8 100 100 E 8 13 29.71 1006 10 16 N/A
6:35 am 06:35 Cloudy 46 8 46 8 100 100 E 8 13 29.71 1006 10 16 N/A
6:55 am 06:55 Mostly Cloudy 46 8 46 8 100 100 E 10 17 29.69 1005 10 16 N/A
7:15 am 07:15 Mostly Cloudy 46 8 46 8 100 100 E 9 15 29.68 1005 10 16 N/A
7:35 am 07:35 Mostly Cloudy 46 8 46 8 100 100 E 12 19 29.67 1005 10 16 N/A
7:55 am 07:55 Partly Cloudy 46 8 46 8 100 100 E 12 19 29.66 1004 10 16 N/A
8:15 am 08:15 Partly Cloudy 46 8 46 8 100 100 E 12 19 29.65 1004 10 16 N/A
8:35 am 08:35 Partly Cloudy 46 8 46 8 100 100 E 12 19 29.65 1004 10 16 N/A
8:55 am 08:55 Partly Cloudy 48 9 48 9 100 100 E 13 20 29.64 1004 10 16 N/A
9:15 am 09:15 Partly Cloudy 48 9 48 9 100 100 E 10 17 29.63 1004 10 16 N/A
9:35 am 09:35 Partly Cloudy 48 9 48 9 100 100 E 10 17 29.63 1004 10 16 N/A
9:55 am 09:55 Partly Cloudy 50 10 48 9 94 94 E 14 22 29.61 1003 10 16 N/A
10:15 am 10:15 Sunny 50 10 48 9 94 94 E 16 26 29.59 1002 10 16 N/A
10:35 am 10:35 Partly Cloudy 52 11 48 9 88 88 E 15 24 29.56 1001 10 16 N/A
10:55 am 10:55 Partly Cloudy 52 11 48 9 88 88 E 13 20 29.56 1001 10 16 N/A
11:15 am 11:15 Partly Cloudy 52 11 48 9 88 88 E 14 22 29.56 1001 10 16 N/A
11:35 am 11:35 Partly Cloudy 54 12 50 10 88 88 E 9 15 29.56 1001 10 16 N/A
11:55 am 11:55 Cloudy 54 12 48 9 82 82 S 7 11 29.59 1002 10 16 N/A
12:15 pm 12:15 Cloudy 54 12 48 9 82 82 SSE 8 13 29.60 1002 10 16 N/A
12:35 pm 12:35 Cloudy 54 12 50 10 88 88 SSE 9 15 29.59 1002 4 6 N/A
12:55 pm 12:55 Cloudy 50 10 50 10 100 100 E 6 9 29.58 1002 2 3 N/A
1:15 pm 13:15 Cloudy 50 10 50 10 100 100 E 7 11 29.57 1001 3 5 N/A
1:35 pm 13:35 Cloudy 50 10 50 10 100 100 E 10 17 29.57 1001 5 8 N/A
1:55 pm 13:55 Cloudy 52 11 52 11 100 100 E 10 17 29.55 1001 3 5 N/A
2:15 pm 14:15 Cloudy 52 11 52 11 100 100 E 12 19 29.53 1000 3 5 N/A
2:35 pm 14:35 Cloudy 52 11 52 11 100 100 E 12 19 29.53 1000 10 16 N/A
2:55 pm 14:55 Cloudy 52 11 52 11 100 100 ESE 12 19 29.53 1000 7 11 N/A
3:15 pm 15:15 Cloudy 52 11 52 11 100 100 ESE 12 19 29.53 1000 3 4 N/A
3:35 pm 15:35 Cloudy 52 11 52 11 100 100 SE 12 19 29.53 1000 3 5 N/A
3:55 pm 15:55 Cloudy 52 11 52 11 100 100 ESE 9 15 29.53 1000 5 8 N/A
4:15 pm 16:15 Cloudy 52 11 52 11 100 100 SE 12 19 29.53 1000 3 5 N/A
4:35 pm 16:35 Cloudy 52 11 52 11 100 100 ESE 9 15 29.52 1000 3 4 N/A
4:55 pm 16:55 Cloudy 52 11 52 11 100 100 ESE 12 19 29.53 1000 7 11 N/A
5:15 pm 17:15 Cloudy 52 11 52 11 100 100 ESE 8 13 29.53 1000 10 16 N/A
5:35 pm 17:35 Cloudy 52 11 52 11 100 100 SE 9 15 29.53 1000 10 16 N/A
5:55 pm 17:55 Cloudy 52 11 52 11 100 100 SE 8 13 29.52 1000 7 11 N/A
6:15 pm 18:15 Cloudy 52 11 52 11 100 100 ESE 8 13 29.53 1000 7 11 N/A
6:35 pm 18:35 Cloudy 52 11 52 11 100 100 ESE 8 13 29.54 1000 7 11 N/A
6:55 pm 18:55 Cloudy 52 11 52 11 100 100 ESE 9 15 29.53 1000 5 8 N/A
7:15 pm 19:15 Cloudy 52 11 52 11 100 100 ESE 7 11 29.53 1000 10 16 N/A
7:35 pm 19:35 Cloudy 52 11 52 11 100 100 E 9 15 29.53 1000 10 16 N/A
7:55 pm 19:55 Cloudy 52 11 52 11 100 100 ESE 8 13 29.53 1000 7 11 N/A
8:15 pm 20:15 Cloudy 52 11 52 11 100 100 E 8 13 29.53 1000 10 16 N/A
8:35 pm 20:35 Cloudy 52 11 52 11 100 100 ESE 9 15 29.54 1000 10 16 N/A
8:55 pm 20:55 Cloudy 52 11 52 11 100 100 ESE 10 17 29.53 1000 5 8 N/A
9:15 pm 21:15 Cloudy 52 11 52 11 100 100 ESE 8 13 29.53 1000 7 11 N/A
9:35 pm 21:35 Cloudy 52 11 52 11 100 100 ESE 9 15 29.53 1000 10 16 N/A
9:55 pm 21:55 Cloudy 54 12 54 12 100 100 ESE 8 13 29.52 1000 10 16 N/A
10:15 pm 22:15 Cloudy 54 12 54 12 100 100 ESE 9 15 29.51 999 7 11 N/A
10:35 pm 22:35 Cloudy 54 12 54 12 100 100 ESE 8 13 29.51 999 10 16 N/A
10:55 pm 22:55 Cloudy 54 12 54 12 100 100 ESE 6 9 29.51 999 10 16 N/A
11:15 pm 23:15 Cloudy 54 12 54 12 100 100 ESE 7 11 29.51 999 10 16 N/A
11:35 pm 23:35 Cloudy 54 12 54 12 100 100 ESE 6 9 29.50 999 10 16 N/A
11:55 pm 23:55 Cloudy 54 12 54 12 100 100 ESE 6 9 29.50 999 10 16 N/A

Powered by AerisWeather